{"data":{"norad_id":45134,"epoch":"2026-05-25T03:41:36.770784Z","epoch_age_seconds":68590,"freshness":"FRESH","line1":"1 45134U 20008D   26145.15389781  .00000621  00000+0  17439-2 0  9991","line2":"2 45134  87.8853  40.8686 0001868  76.0417 284.0918 13.10374967305638","mean_motion":13.10374967,"eccentricity":0.0001868,"inclination_deg":87.8853,"raan_deg":40.8686,"arg_perigee_deg":76.0417,"mean_anomaly_deg":284.0918,"bstar":0.0017439,"rev_number":30563,"period_min":109.89220919694,"perigee_km":1220.28918659,"apogee_km":1223.128488995,"semimajor_km":7599.8458377925,"source":"CELESTRAK","updated_at":"2026-05-25T13:38:22.333456Z"}}